TimeCDT,TemperatureF,Dew PointF,Humidity,Sea Level PressureIn,VisibilityMPH,Wind Direction,Wind SpeedMPH,Gust SpeedMPH,PrecipitationIn,Events,Conditions,WindDirDegrees,DateUTC
12:11 AM,35.6,33.8,93,29.67,10.0,Calm,Calm,-,N/A,,Overcast,0,2013-10-31 05:11:00
12:31 AM,35.6,33.8,93,29.66,10.0,Calm,Calm,-,N/A,,Overcast,0,2013-10-31 05:31:00
12:51 AM,35.6,33.8,93,29.65,10.0,Calm,Calm,-,N/A,,Overcast,0,2013-10-31 05:51:00
1:11 AM,35.6,33.8,93,29.65,7.0,Calm,Calm,-,N/A,,Overcast,0,2013-10-31 06:11:00
1:31 AM,35.6,33.8,93,29.65,10.0,Calm,Calm,-,N/A,,Overcast,0,2013-10-31 06:31:00
1:51 AM,35.6,33.8,93,29.64,10.0,Calm,Calm,-,N/A,,Overcast,0,2013-10-31 06:51:00
2:11 AM,35.6,33.8,93,29.63,7.0,Calm,Calm,-,N/A,,Overcast,0,2013-10-31 07:11:00
2:31 AM,35.6,33.8,93,29.63,5.0,Calm,Calm,-,N/A,,Overcast,0,2013-10-31 07:31:00
2:51 AM,35.6,33.8,93,29.61,5.0,Calm,Calm,-,N/A,,Overcast,0,2013-10-31 07:51:00
3:11 AM,35.6,33.8,93,29.61,0.8,Calm,Calm,-,N/A,,Overcast,0,2013-10-31 08:11:00
3:31 AM,35.6,33.8,93,29.61,0.8,Calm,Calm,-,N/A,,Overcast,0,2013-10-31 08:31:00
3:51 AM,35.6,33.8,93,29.60,0.8,Calm,Calm,-,N/A,,Overcast,0,2013-10-31 08:51:00
4:11 AM,35.6,33.8,93,29.59,0.5,Calm,Calm,-,N/A,Fog,Fog,0,2013-10-31 09:11:00
4:31 AM,35.6,33.8,93,29.58,0.8,Calm,Calm,-,N/A,,Overcast,0,2013-10-31 09:31:00
4:51 AM,35.6,33.8,93,29.57,0.8,Calm,Calm,-,N/A,,Overcast,0,2013-10-31 09:51:00
5:11 AM,35.6,33.8,93,29.57,1.0,Calm,Calm,-,N/A,,Overcast,0,2013-10-31 10:11:00
5:31 AM,35.6,33.8,93,29.57,1.0,Calm,Calm,-,N/A,,Overcast,0,2013-10-31 10:31:00
5:51 AM,35.6,33.8,93,29.56,0.5,Calm,Calm,-,N/A,Fog,Fog,0,2013-10-31 10:51:00
6:11 AM,35.6,33.8,93,29.56,0.5,Calm,Calm,-,N/A,Fog,Fog,0,2013-10-31 11:11:00
6:31 AM,35.6,35.6,100,29.55,0.5,Calm,Calm,-,N/A,Fog,Fog,0,2013-10-31 11:31:00
6:51 AM,37.4,35.6,93,29.54,1.8,NW,3.5,-,N/A,,Overcast,320,2013-10-31 11:51:00
7:11 AM,37.4,35.6,93,29.54,2.5,Calm,Calm,-,N/A,,Overcast,0,2013-10-31 12:11:00
7:31 AM,37.4,35.6,93,29.54,3.0,Calm,Calm,-,N/A,,Overcast,0,2013-10-31 12:31:00
7:51 AM,37.4,35.6,93,29.54,2.5,Calm,Calm,-,N/A,,Overcast,0,2013-10-31 12:51:00
8:11 AM,37.4,35.6,93,29.54,1.8,Calm,Calm,-,N/A,,Overcast,0,2013-10-31 13:11:00
8:31 AM,35.6,35.6,100,29.53,1.8,Calm,Calm,-,N/A,,Overcast,0,2013-10-31 13:31:00
8:51 AM,35.6,35.6,100,29.53,1.8,Calm,Calm,-,N/A,,Overcast,0,2013-10-31 13:51:00
9:11 AM,37.4,35.6,93,29.52,1.5,Calm,Calm,-,N/A,,Overcast,0,2013-10-31 14:11:00
9:31 AM,37.4,35.6,93,29.52,2.0,Calm,Calm,-,N/A,,Overcast,0,2013-10-31 14:31:00
9:51 AM,37.4,35.6,93,29.51,1.8,Calm,Calm,-,N/A,,Overcast,0,2013-10-31 14:51:00
10:11 AM,37.4,35.6,93,29.51,3.0,Calm,Calm,-,N/A,,Overcast,0,2013-10-31 15:11:00
10:31 AM,37.4,37.4,100,29.51,4.0,Calm,Calm,-,N/A,,Overcast,0,2013-10-31 15:31:00
10:51 AM,39.2,37.4,93,29.50,3.0,Calm,Calm,-,N/A,,Overcast,0,2013-10-31 15:51:00
11:11 AM,39.2,37.4,93,29.49,3.0,Calm,Calm,-,N/A,,Overcast,0,2013-10-31 16:11:00
11:31 AM,39.2,37.4,93,29.50,2.0,Calm,Calm,-,N/A,,Overcast,0,2013-10-31 16:31:00
11:51 AM,39.2,37.4,93,29.49,2.5,Calm,Calm,-,N/A,,Overcast,0,2013-10-31 16:51:00
12:11 PM,39.2,37.4,93,29.49,1.8,Calm,Calm,-,N/A,,Overcast,0,2013-10-31 17:11:00
12:31 PM,39.2,37.4,93,29.48,2.5,Calm,Calm,-,N/A,,Overcast,0,2013-10-31 17:31:00
12:51 PM,-9999,-9999,N/A,-9999,1.8,Calm,Calm,-,N/A,,Overcast,0,2013-10-31 17:51:00
1:11 PM,39.2,37.4,93,29.45,2.0,Calm,Calm,-,N/A,,Overcast,0,2013-10-31 18:11:00
1:31 PM,39.2,37.4,93,29.45,-9999.0,Calm,Calm,-,N/A,,Overcast,0,2013-10-31 18:31:00
1:51 PM,39.2,37.4,93,29.44,7.0,NW,3.5,-,N/A,,Overcast,320,2013-10-31 18:51:00
2:11 PM,39.2,37.4,93,29.43,10.0,Calm,Calm,-,N/A,,Overcast,0,2013-10-31 19:11:00
2:31 PM,39.2,37.4,93,29.42,10.0,NW,4.6,-,N/A,,Overcast,320,2013-10-31 19:31:00
2:51 PM,39.2,37.4,93,29.42,7.0,NW,3.5,-,N/A,,Overcast,320,2013-10-31 19:51:00
3:11 PM,39.2,37.4,93,29.41,10.0,NW,5.8,-,N/A,,Overcast,320,2013-10-31 20:11:00
3:31 PM,39.2,37.4,93,29.41,10.0,NW,5.8,-,N/A,,Overcast,320,2013-10-31 20:31:00
3:51 PM,39.2,37.4,93,29.40,10.0,NNW,5.8,-,N/A,,Overcast,330,2013-10-31 20:51:00
4:11 PM,39.2,37.4,93,29.39,10.0,NNW,6.9,-,N/A,,Overcast,330,2013-10-31 21:11:00
4:31 PM,39.2,37.4,93,29.40,10.0,NW,3.5,-,N/A,,Overcast,320,2013-10-31 21:31:00
4:51 PM,39.2,37.4,93,29.40,10.0,NW,4.6,-,N/A,,Overcast,320,2013-10-31 21:51:00
5:11 PM,39.2,37.4,93,29.40,10.0,NW,4.6,-,N/A,,Overcast,320,2013-10-31 22:11:00
5:31 PM,39.2,37.4,93,29.40,10.0,NNW,3.5,-,N/A,,Overcast,330,2013-10-31 22:31:00
5:51 PM,39.2,37.4,93,29.39,5.0,Calm,Calm,-,N/A,,Drizzle,0,2013-10-31 22:51:00
6:11 PM,39.2,37.4,93,29.39,2.0,NNW,3.5,-,N/A,,Drizzle,330,2013-10-31 23:11:00
6:31 PM,37.4,37.4,100,29.39,3.0,Calm,Calm,-,N/A,,Drizzle,0,2013-10-31 23:31:00
6:51 PM,37.4,37.4,100,29.39,5.0,Calm,Calm,-,N/A,,Light Drizzle,0,2013-10-31 23:51:00
7:11 PM,37.4,37.4,100,29.39,7.0,Calm,Calm,-,N/A,,Overcast,0,2013-11-01 00:11:00
7:31 PM,37.4,37.4,100,29.39,7.0,Calm,Calm,-,N/A,,Overcast,0,2013-11-01 00:31:00
7:51 PM,37.4,37.4,100,29.39,7.0,Calm,Calm,-,N/A,,Overcast,0,2013-11-01 00:51:00
8:11 PM,37.4,37.4,100,29.39,7.0,Calm,Calm,-,N/A,,Overcast,0,2013-11-01 01:11:00
8:31 PM,37.4,35.6,93,29.38,7.0,Calm,Calm,-,N/A,,Overcast,0,2013-11-01 01:31:00
8:51 PM,37.4,35.6,93,29.39,5.0,Calm,Calm,-,N/A,,Overcast,0,2013-11-01 01:51:00
9:11 PM,37.4,35.6,93,29.38,5.0,Calm,Calm,-,N/A,,Overcast,0,2013-11-01 02:11:00
9:31 PM,37.4,37.4,100,29.38,5.0,Calm,Calm,-,N/A,,Overcast,0,2013-11-01 02:31:00
9:53 PM,37.4,37.4,100,29.39,5.0,Calm,Calm,-,N/A,,Overcast,0,2013-11-01 02:53:00
10:11 PM,37.4,37.4,100,29.39,4.0,Calm,Calm,-,N/A,,Overcast,0,2013-11-01 03:11:00
10:31 PM,37.4,37.4,100,29.39,5.0,Calm,Calm,-,N/A,,Overcast,0,2013-11-01 03:31:00
10:51 PM,37.4,37.4,100,29.39,5.0,Calm,Calm,-,N/A,,Overcast,0,2013-11-01 03:51:00
11:11 PM,37.4,35.6,93,29.39,5.0,Calm,Calm,-,N/A,,Overcast,0,2013-11-01 04:11:00
11:31 PM,37.4,35.6,93,29.39,5.0,Calm,Calm,-,N/A,,Overcast,0,2013-11-01 04:31:00
11:51 PM,37.4,35.6,93,29.39,5.0,Calm,Calm,-,N/A,,Overcast,0,2013-11-01 04:51:00